Location: Unspecified
(0.0000°N, 0.0000°E)
Time: 05:23:54
(UTC+00:00)

Transit VBN-2 - Visible Passes

Search period start: 17 September 2024 00:00
Search period end: 27 September 2024 00:00
Orbit: 1058 x 1108 km, 89.9° (Epoch: 16 September)

Date Brightness Start Highest point End Pass type
(mag) Time Alt. Az. Time Alt. Az. Time Alt. Az.
17 Sep 10.7 04:06:41 10° SE 04:11:16 20° E 04:15:49 10° NE visible
18 Sep 8.3 05:01:50 10° S 05:08:27 83° E 05:15:03 10° N visible
18 Sep 11.5 18:26:50 10° NW 18:30:14 14° W 18:33:39 10° WSW visible
19 Sep 10.1 04:13:41 10° SE 04:19:15 29° E 04:24:48 10° NNE visible
20 Sep 8.1 05:09:53 10° S 05:16:26 70° W 05:23:00 10° N visible
21 Sep 9.4 04:21:04 10° SSE 04:27:14 42° E 04:33:23 10° NNE visible
22 Sep 11.0 03:34:50 10° ESE 03:38:03 14° E 03:41:15 10° NE visible
22 Sep 8.4 05:18:07 10° SSW 05:24:25 48° W 05:30:45 10° NNW visible
23 Sep 8.7 04:28:43 10° SSE 04:35:13 61° E 04:41:44 10° N visible
24 Sep 10.5 03:41:14 10° SE 03:46:02 21° E 03:50:49 10° NE visible
24 Sep 8.8 05:26:37 10° SSW 05:32:24 33° W 05:38:15 10° NNW visible
25 Sep 8.2 04:36:35 10° S 04:43:12 87° E 04:49:51 10° N visible
26 Sep 9.9 03:48:19 10° SE 03:54:00 31° E 03:59:43 10° NNE visible
